THOR ABLESTAR DEB, 148

Orbit data source: Space-Track

THOR ABLESTAR DEB, 148 is space debris in LEO originally from a launch on Thu, 29 Jun 1961 UTC launched from the Air Force Eastern Test Range (AFETR). Debris objects in space refer to the collection of defunct objects orbiting the Earth. Examples of debris include non-operational satellites, rocket bodies, and fragments generated from explosions, collisions, or faulty payload assembly.

Loading next visibility...
THOR ABLESTAR DEB details
Identifier
148, 1961-015AJ
Orbit
LEO
Last TLE update19 hours ago
Origin
Flag of USUSAF SSD (US)
ManufacturerUnknown
MissionSpacecraft
Bus & MotorUnknown
MassUnknown
Launch date (UTC)
1961-06-29 (63 years ago)
Launch vehicleUnknown
Launch site
Air Force Eastern Test Range (AFETR)
Object type
Payload
Rocket body
Debris
Shape & HBRUnknown
Radar Cross SectionMedium (>0.1 m² and <1 m²)

Expand to show TLE details & history

TLE from 19 hours ago
0 THOR ABLESTAR DEB
1 00148U 61015AJ  24355.75687000  .00003131  00000-0  16576-2 0  9993
2 00148  65.7738 102.0666 0153712 242.1331 116.4106 14.09205165682353
Epoch: 2024-12-20T18:09Z
Definitive object data (Epoch: 2024-12-20T18:09:53.568Z)
Latitude-0.00002°
Longitude99.77558°
Altitude914.972 km
Speed7.369 km/s
True Right ascension06h 48m 15s
True Declination0° 00' 00"
Sunlit
Object was in full shadow at TLE epoch
Visualization TLE readout
Latitude32.52705°
Longitude114.29625°
Altitude965.335 km
Speed7.321 km/s
Apparent Right ascension04h 37m 58s
Apparent Declination-1° 20' 29"
Sunlit
Object is in full shadow
Visualization observer readout
Local Sidereal Time12:06:22
Azimuth283.558° WNW
Elevation-17.667°
Doppler factor1
Orbital elements
Apogee altitude971.86 km
Perigee altitude749.324 km
Semi-major axis7,238.729 km
Eccentricity0.0153712
Inclination65.7738°
RAAN102.0666°
Arg. of periapsis242.1331°
True anomaly117.9746°
Mean anomaly116.4106°
Eccentric anomaly117.19396°
Mean motion3.52411 °/min
BSTAR0.0016576
Orbital period102.15 mins
Loading maneuver chart data...

THOR ABLESTAR DEB Visibility forecast

Observer location: undefined°, undefined

Span
Click to sort rows by Start time (UTC) header in descending order
Start Az.
Max El. time (UTC)
Max El. Az.
Max El.
End time (UTC)
End Az.
9 mins2024-12-21 16:50:28.089Z349.26° N2024-12-21 16:55:28.089Z49.051° ENE26.253°2024-12-21 16:59:28.089Z100.722° ESE
9 mins2024-12-21 18:36:28.089Z314.359° NW2024-12-21 18:40:28.089Z256.398° W37.086°2024-12-21 18:45:28.089Z175.637° S
9 mins2024-12-22 07:45:28.089Z160.853° S2024-12-22 07:49:28.089Z112.09° ESE26.651°2024-12-22 07:54:28.089Z53.687° ENE
10 mins2024-12-22 09:30:28.089Z240.263° WSW2024-12-22 09:34:28.089Z303.001° NW36.947°2024-12-22 09:40:28.089Z20.222° NNE
|